New Delhi, India

10:29 AM IST on March 30, 2017 (GMT +0530)
Indira Gandhi International Airport

Weather History for VIDP - October, 2013

Change the Weather History Date:

Saturday, October 5, 2013

  Actual Average Record
Temperature  
Mean Temperature 81 °F -  
Max Temperature 89 °F 87 °F 102 °F (2007)
Min Temperature 73 °F 65 °F 68 °F (2003)
Cooling Degree Days 16    
Growing Degree Days 31 (Base 50)    
Moisture  
Dew Point 72 °F    
Average Humidity 73    
Maximum Humidity 94    
Minimum Humidity 49    
Precipitation  
Precipitation 0.00 in - - ()
Sea Level Pressure  
Sea Level Pressure 29.70 in    
Wind  
Wind Speed 4 mph ()    
Max Wind Speed 9 mph    
Max Gust Speed -    
Visibility 1.5 miles    
Events      
Averages and records for this station are not official NWS values.
T = Trace of Precipitation, MM = Missing Value Source: Averaged Metar Reports

Daily Weather History Graph

Daily Weather History Graph

Search for Another Location

Airport or City:

Trip Planner

Search our weather history database for the weather conditions in past years. The results will help you decide how hot, cold, wet, or windy it might be!

Date:

Astronomy

Oct. 05, 2013 Rise Set
Actual Time 6:16 AM IST 6:02 PM IST
Civil Twilight 5:52 AM IST 6:26 PM IST
Nautical Twilight 5:25 AM IST 6:53 PM IST
Astronomical Twilight 4:58 AM IST 7:21 PM IST
Moon 6:22 AM IST (10/5) 6:10 PM IST (10/5)
Length of Visible Light 12h 33m
Length of Day
11h 46m
New Moon, 0% of the Moon is Illuminated
Oct 5
New Moon
Oct 12
First Quarter
Oct 19
Full
Oct 27
Last Quarter
Nov 3
New

Hourly Weather History & Observations

Time (IST) Temp. Heat Index Dew Point Humidity Pressure Visibility Wind Dir Wind Speed Gust Speed Precip Events Conditions
12:00 AM 75.2 °F - 73.4 °F 94% 29.77 in 1.7 mi NE 3.5 mph - N/A   Mostly Cloudy
12:30 AM 75.2 °F - 73.4 °F 94% 29.77 in 1.7 mi NE 3.5 mph - N/A   Mostly Cloudy
1:30 AM 75.2 °F - 73.4 °F 94% 29.77 in 1.7 mi NE 3.5 mph - N/A   Mostly Cloudy
2:00 AM 75.2 °F - 73.4 °F 94% 29.74 in 1.6 mi NNE 3.5 mph - N/A   Mostly Cloudy
2:30 AM 75.2 °F - 73.4 °F 94% 29.71 in 1.6 mi NNE 4.6 mph - N/A   Mostly Cloudy
3:00 AM 75.2 °F - 73.4 °F 94% 29.71 in 1.6 mi NE 3.5 mph - N/A   Mostly Cloudy
3:30 AM 75.2 °F - 73.4 °F 94% 29.71 in 1.6 mi NNE 3.5 mph - N/A   Mostly Cloudy
4:00 AM 75.2 °F - 73.4 °F 94% 29.71 in 1.6 mi North 2.3 mph - N/A   Mostly Cloudy
4:30 AM 75.2 °F - 73.4 °F 94% 29.71 in 1.6 mi NNE 3.5 mph - N/A   Mostly Cloudy
5:00 AM 75.2 °F - 73.4 °F 94% 29.71 in 1.6 mi North 3.5 mph - N/A   Mostly Cloudy
5:30 AM 75.2 °F - 73.4 °F 94% 29.71 in 1.6 mi North 3.5 mph - N/A   Mostly Cloudy
6:00 AM 73.4 °F - 71.6 °F 94% 29.71 in 1.6 mi North 2.3 mph - N/A   Mostly Cloudy
6:30 AM 73.4 °F - 71.6 °F 94% 29.71 in 1.5 mi NNE 2.3 mph - N/A   Mostly Cloudy
7:00 AM 75.2 °F - 71.6 °F 89% 29.74 in 1.4 mi North 3.5 mph - N/A   Mostly Cloudy
7:30 AM 75.2 °F - 71.6 °F 89% 29.74 in 1.4 mi NNE 4.6 mph - N/A   Mostly Cloudy
8:00 AM 78.8 °F - 71.6 °F 78% 29.74 in 1.6 mi NE 5.8 mph - N/A   Mostly Cloudy
8:30 AM 78.8 °F - 69.8 °F 74% 29.74 in 1.6 mi NNE 5.8 mph - N/A   Haze
9:00 AM 80.6 °F 83.9 °F 69.8 °F 70% 29.74 in 1.6 mi NNE 6.9 mph - N/A   Haze
9:30 AM 82.4 °F 86.3 °F 69.8 °F 66% 29.74 in 1.7 mi NNE 8.1 mph - N/A   Haze
10:30 AM 84.2 °F 89.6 °F 71.6 °F 66% 29.74 in 1.9 mi North 9.2 mph - N/A   Haze
11:00 AM 86.0 °F 91.8 °F 71.6 °F 62% 29.74 in 1.9 mi NNE 6.9 mph - N/A   Haze
11:30 AM 86.0 °F 90.4 °F 69.8 °F 58% 29.74 in - NE 8.1 mph - N/A   Scattered Clouds
12:00 PM 86.0 °F 90.4 °F 69.8 °F 58% 29.74 in - NE 6.9 mph - N/A   Haze
12:30 PM 87.8 °F 92.6 °F 69.8 °F 55% 29.71 in - NE 8.1 mph - N/A   Haze
1:00 PM 87.8 °F 92.6 °F 69.8 °F 55% 29.71 in - NE 5.8 mph - N/A   Haze
1:30 PM 87.8 °F 92.6 °F 69.8 °F 55% 29.68 in - NE 6.9 mph - N/A   Haze
2:00 PM 87.8 °F 92.6 °F 69.8 °F 55% 29.68 in - ENE 5.8 mph - N/A   Haze
2:22 PM 89.6 °F 93.4 °F 68.0 °F 49% 29.65 in 1.3 mi NE 5.8 mph - N/A   Haze
3:30 PM 89.6 °F 94.7 °F 69.8 °F 52% 29.65 in 1.6 mi NNE 4.6 mph - N/A   Haze
4:00 PM 89.6 °F 94.7 °F 69.8 °F 52% 29.65 in 1.6 mi NNE 3.5 mph - N/A   Haze
4:30 PM 89.6 °F 94.7 °F 69.8 °F 52% 29.65 in 1.4 mi NNE 4.6 mph - N/A   Haze
5:00 PM 89.6 °F 94.7 °F 69.8 °F 52% 29.65 in 1.4 mi NNE 2.3 mph - N/A   Haze
5:30 PM 87.8 °F 92.6 °F 69.8 °F 55% 29.65 in 1.4 mi Calm Calm - N/A   Haze
6:00 PM 87.8 °F 92.6 °F 69.8 °F 55% 29.62 in 1.4 mi Calm Calm - N/A   Haze
6:30 PM 87.8 °F 92.6 °F 69.8 °F 55% 29.65 in 1.4 mi NW 5.8 mph - N/A   Haze
7:00 PM 86.0 °F 91.8 °F 71.6 °F 62% 29.65 in 1.4 mi NNW 4.6 mph - N/A   Haze
7:30 PM 86.0 °F 91.8 °F 71.6 °F 62% 29.68 in 1.4 mi NNE 4.6 mph - N/A   Haze
8:00 PM 82.4 °F 88.2 °F 73.4 °F 74% 29.68 in 1.4 mi Calm Calm - N/A   Haze
8:30 PM 82.4 °F 88.2 °F 73.4 °F 74% 29.68 in 1.4 mi Calm Calm - N/A   Haze
9:00 PM 82.4 °F 88.2 °F 73.4 °F 74% 29.68 in 1.4 mi Calm Calm - N/A   Haze
9:30 PM 82.4 °F 88.2 °F 73.4 °F 74% 29.68 in 1.4 mi Calm Calm - N/A   Haze
10:00 PM 82.4 °F 88.2 °F 73.4 °F 74% 29.71 in 1.3 mi Calm Calm - N/A   Haze
10:30 PM 82.4 °F 88.2 °F 73.4 °F 74% 29.71 in 1.3 mi Calm Calm - N/A   Haze
11:00 PM 80.6 °F 85.4 °F 73.4 °F 79% 29.71 in 1.3 mi Calm Calm - N/A   Partly Cloudy
11:30 PM 80.6 °F 85.4 °F 73.4 °F 79% 29.71 in 1.1 mi Calm Calm - N/A   Partly Cloudy